Flag for Germany Weather past 2 weeks in Plettenberg, North Rhine-Westphalia, Germany

36 °F

Light rain. Passing clouds.

Feels Like: 29 °F
Forecast: 30 / 40 °F
Wind: 8 mph from Southeast

Location: Koeln / Bonn

Current Time: Nov 25, 2015 at 5:53:27 AM

Latest Report: Nov 25, 2015 at 4:50 AM

Visibility: N/A

Pressure: 29.71 "Hg

Humidity: 100%

Dew point: 36 °F

Location of PlettenbergLocation

Historic Weather in Plettenberg — Graph


Plettenberg temperature yesterday

Maximum temperature yesterday: 39 °F (at 1:50 PM)
Minimum temperature yesterday: 32 °F (at 5:20 AM)
Average temperature yesterday: 34 °F

Past Weeks' High & Low Weather Summary

High61 °F (Nov 10, 3:20 PM)100% (Nov 14, 11:20 PM)30.33 "Hg (Nov 14, 11:20 PM)
Low32 °F (Nov 24, 5:20 AM)59% (Nov 10, 3:20 AM)29.39 "Hg (Nov 21, 1:50 PM)
Average49 °F82%29.99 "Hg
* Reported Nov 10 3:20 AM — Nov 25 3:50 AM, Plettenberg, Weather by CustomWeather, © 2015

Note: Actual official high and low records may vary slightly from our data, if they occured in-between our weather recording intervals... More about our weather records


Plettenberg weather history for previous 24 hours

Time TempWeatherWind HumidityBarometerVisibility
3:50 AM
Wed, Nov 25
36 °FPassing clouds.7 mph100%29.71 "HgN/A
3:20 AM36 °FPassing clouds.9 mph100%29.74 "HgN/A
2:50 AM36 °FLight rain. Passing clouds.8 mph100%29.74 "HgN/A
2:20 AM36 °FLight rain. Passing clouds.8 mph100%29.74 "HgN/A
1:50 AM36 °FLight rain. Passing clouds.8 mph100%29.74 "HgN/A
1:20 AM34 °FLight rain. Passing clouds.8 mph100%29.77 "HgN/A
12:50 AM34 °FLight rain. Passing clouds.8 mph100%29.77 "HgN/A
12:20 AM34 °FLight rain. Passing clouds.7 mph100%29.80 "HgN/A
11:50 PM
Tue, Nov 24
34 °FLight rain. Passing clouds.7 mph100%29.80 "HgN/A
10:50 PM34 °FLight rain. Partly cloudy.8 mph100%29.80 "Hg6 mi
10:20 PM32 °FLight rain. Partly cloudy.7 mph100%29.83 "Hg6 mi
9:50 PM32 °FLight snow. Ice fog.7 mph100%29.83 "Hg2 mi
9:20 PM32 °FSnow. Ice fog.7 mph100%29.83 "Hg2 mi
8:50 PM32 °FLight snow. Ice fog.8 mph100%29.86 "Hg2 mi
8:20 PM32 °FLight snow. Ice fog.8 mph100%29.86 "Hg2 mi
7:50 PM32 °FLight snow. Ice fog.8 mph100%29.89 "Hg2 mi
7:20 PM32 °FSnow. Ice fog.8 mph100%29.89 "Hg2 mi
6:50 PM32 °FSnow. Ice fog.8 mph100%29.89 "Hg2 mi
6:20 PM34 °FLight snow. Fog.9 mph100%29.92 "Hg2 mi
5:50 PM34 °FLight snow. Fog.10 mph100%29.92 "Hg3 mi
5:20 PM34 °FLight snow. Partly cloudy.12 mph100%29.92 "Hg5 mi
4:50 PM34 °FLight snow. Partly cloudy.13 mph93%29.92 "HgN/A
4:20 PM36 °FLight snow. Broken clouds.12 mph87%29.95 "HgN/A
3:50 PM36 °FLight snow. Broken clouds.15 mph81%29.98 "HgN/A
3:20 PM37 °FLight rain. Broken clouds.14 mph75%29.98 "HgN/A
2:50 PM37 °FLight rain. Broken clouds.15 mph70%30.01 "HgN/A
2:20 PM37 °FLight rain. Partly sunny.15 mph70%30.01 "HgN/A
1:50 PM39 °FSunny.14 mph65%30.04 "Hg10 mi
1:20 PM37 °FSunny.14 mph70%30.04 "Hg10 mi
12:50 PM37 °FSunny.16 mph70%30.07 "Hg10 mi
12:20 PM37 °FSunny.13 mph75%30.07 "Hg10 mi
11:50 AM37 °FSunny.13 mph81%30.09 "Hg10 mi
11:20 AM37 °FSunny.13 mph75%30.09 "Hg10 mi
10:50 AM36 °FSunny.13 mph81%30.12 "Hg10 mi
10:20 AM36 °FSunny.14 mph81%30.12 "Hg10 mi
9:50 AM36 °FSunny.13 mph81%30.15 "Hg10 mi
9:20 AM36 °FSunny.13 mph81%30.15 "Hg10 mi
8:50 AM36 °FSunny.12 mph81%30.15 "Hg10 mi
7:50 AM32 °FClear.8 mph93%30.15 "Hg10 mi
7:20 AM34 °FClear.8 mph87%30.15 "Hg10 mi
6:50 AM32 °FClear.10 mph93%30.18 "Hg10 mi
6:20 AM32 °FClear.8 mph93%30.18 "Hg10 mi
5:50 AM32 °FClear.7 mph93%30.18 "Hg10 mi
5:20 AM32 °FClear.8 mph93%30.18 "Hg10 mi
Weather by CustomWeather, © 2015

See weather overviewHow to use our weather pages